• In Netherlands
  • List of Countries
  • For 7 days
  • Water Temperature
  • Satellite Maps
  • Weather Map
  • Weather Widgets
  • user-avatar
    Login

    Hourly Weather Tulsa

    Today, 15 August, Wednesday

    Time Temperature Precipitation Wind Pressure Humidity
    00:00 +25°C° 0 mm 3 mps 740 mmHg 90%
    01:00 +24°C° 1.7 mm 3 mps 740 mmHg 92%
    02:00 +24°C° 1.7 mm 3 mps 740 mmHg 94%
    03:00 +24°C° 1.7 mm 3 mps 739 mmHg 95%
    04:00 +24°C° 2 mm 3 mps 739 mmHg 96%
    05:00 +24°C° 2 mm 3 mps 740 mmHg 96%
    06:00 +24°C° 2 mm 3 mps 740 mmHg 96%
    07:00 +25°C° 1.1 mm 4 mps 740 mmHg 92%
    08:00 +26°C° 1.1 mm 5 mps 740 mmHg 89%
    09:00 +27°C° 1.1 mm 6 mps 741 mmHg 85%
    10:00 +29°C° 0.6 mm 6 mps 741 mmHg 81%
    11:00 +30°C° 0.6 mm 5 mps 741 mmHg 76%
    12:00 +32°C° 0.6 mm 5 mps 740 mmHg 72%
    13:00 +33°C° 0.4 mm 5 mps 740 mmHg 69%
    14:00 +33°C° 0.4 mm 5 mps 740 mmHg 66%
    15:00 +34°C° 0.4 mm 4 mps 739 mmHg 63%
    16:00 +34°C° 0.1 mm 3 mps 739 mmHg 63%
    17:00 +32°C° 0.1 mm 2 mps 739 mmHg 64%
    18:00 +32°C° 0.1 mm 1 mps 739 mmHg 65%
    19:00 +30°C° 0 mm 1 mps 739 mmHg 68%
    20:00 +29°C° 0 mm 1 mps 740 mmHg 72%
    21:00 +27°C° 0 mm 1 mps 740 mmHg 76%
    22:00 +26°C° 0 mm 1 mps 740 mmHg 79%
    23:00 +25°C° 0 mm 1 mps 740 mmHg 82%

    Tomorrow, 16 August, Thursday

    Time Temperature Precipitation Wind Pressure Humidity
    00:00 +25°C° 0 mm 2 mps 740 mmHg 85%
    01:00 +25°C° 0 mm 1 mps 740 mmHg 86%
    02:00 +24°C° 0 mm 1 mps 740 mmHg 87%
    03:00 +24°C° 0 mm 1 mps 740 mmHg 88%
    04:00 +24°C° 0 mm 1 mps 741 mmHg 89%
    05:00 +24°C° 0 mm 1 mps 741 mmHg 90%
    06:00 +24°C° 0 mm 1 mps 741 mmHg 91%
    07:00 +26°C° 0 mm 2 mps 742 mmHg 87%
    08:00 +27°C° 0 mm 2 mps 742 mmHg 82%
    09:00 +29°C° 0 mm 3 mps 743 mmHg 78%
    10:00 +30°C° 0 mm 3 mps 743 mmHg 72%
    11:00 +33°C° 0 mm 3 mps 742 mmHg 66%
    12:00 +34°C° 0 mm 3 mps 742 mmHg 60%
    13:00 +35°C° 0.1 mm 3 mps 742 mmHg 60%
    14:00 +35°C° 0.1 mm 3 mps 742 mmHg 60%
    15:00 +36°C° 0.1 mm 3 mps 742 mmHg 60%
    16:00 +35°C° 2.5 mm 3 mps 741 mmHg 65%
    17:00 +33°C° 2.5 mm 4 mps 741 mmHg 70%
    18:00 +32°C° 2.5 mm 4 mps 741 mmHg 76%
    19:00 +30°C° 4.6 mm 4 mps 741 mmHg 80%
    20:00 +28°C° 4.6 mm 5 mps 742 mmHg 84%
    21:00 +27°C° 4.6 mm 5 mps 742 mmHg 88%
    22:00 +27°C° 0.2 mm 5 mps 742 mmHg 88%
    23:00 +27°C° 0.2 mm 4 mps 742 mmHg 89%

    Day after tomorrow, 17 August, Friday

    Time Temperature Precipitation Wind Pressure Humidity
    00:00 +27°C° 0.2 mm 4 mps 742 mmHg 89%
    01:00 +27°C° 0 mm 4 mps 742 mmHg 88%
    02:00 +27°C° 0 mm 4 mps 741 mmHg 87%
    03:00 +27°C° 0 mm 4 mps 741 mmHg 86%
    04:00 +27°C° 0.3 mm 4 mps 741 mmHg 86%
    05:00 +26°C° 0.3 mm 3 mps 742 mmHg 86%
    06:00 +26°C° 0.3 mm 3 mps 742 mmHg 86%
    07:00 +28°C° 0 mm 3 mps 742 mmHg 81%
    08:00 +29°C° 0 mm 4 mps 742 mmHg 76%
    09:00 +32°C° 0 mm 4 mps 742 mmHg 71%
    10:00 +33°C° 0 mm 4 mps 742 mmHg 68%
    11:00 +34°C° 0 mm 3 mps 742 mmHg 64%
    12:00 +35°C° 0 mm 3 mps 742 mmHg 60%
    13:00 +35°C° 0.2 mm 3 mps 742 mmHg 61%
    14:00 +36°C° 0.2 mm 4 mps 742 mmHg 61%
    15:00 +36°C° 0.2 mm 4 mps 741 mmHg 62%
    16:00 +35°C° 0.5 mm 3 mps 741 mmHg 66%
    17:00 +34°C° 0.5 mm 3 mps 741 mmHg 69%
    18:00 +33°C° 0.5 mm 3 mps 741 mmHg 73%
    19:00 +31°C° 0 mm 3 mps 742 mmHg 75%
    20:00 +29°C° 0 mm 3 mps 742 mmHg 76%
    21:00 +28°C° 0 mm 3 mps 742 mmHg 78%
    22:00 +27°C° 0 mm 3 mps 742 mmHg 80%
    23:00 +26°C° 0 mm 3 mps 742 mmHg 82%

    18 August, Saturday

    Time Temperature Precipitation Wind Pressure Humidity
    00:00 +26°C° 0 mm 2 mps 742 mmHg 83%
    01:00 +25°C° 0 mm 2 mps 742 mmHg 86%
    02:00 +25°C° 0 mm 2 mps 742 mmHg 88%
    03:00 +24°C° 0 mm 2 mps 742 mmHg 90%
    04:00 +24°C° 0 mm 2 mps 742 mmHg 91%
    05:00 +24°C° 0 mm 2 mps 742 mmHg 91%
    06:00 +24°C° 0 mm 2 mps 742 mmHg 92%
    07:00 +25°C° 0 mm 3 mps 743 mmHg 86%
    08:00 +27°C° 0 mm 3 mps 743 mmHg 80%
    09:00 +28°C° 0 mm 3 mps 743 mmHg 74%
    10:00 +30°C° 0 mm 3 mps 743 mmHg 69%
    11:00 +31°C° 0 mm 3 mps 743 mmHg 63%
    12:00 +33°C° 0 mm 3 mps 743 mmHg 58%
    13:00 +34°C° 0 mm 3 mps 742 mmHg 56%
    14:00 +34°C° 0 mm 3 mps 742 mmHg 54%
    15:00 +35°C° 0 mm 3 mps 741 mmHg 52%
    16:00 +34°C° 0 mm 2 mps 741 mmHg 55%
    17:00 +34°C° 0 mm 2 mps 741 mmHg 59%
    18:00 +32°C° 0 mm 2 mps 741 mmHg 62%
    19:00 +31°C° 0 mm 2 mps 741 mmHg 66%
    20:00 +29°C° 0 mm 2 mps 741 mmHg 70%
    21:00 +27°C° 0 mm 2 mps 741 mmHg 73%
    22:00 +27°C° 0 mm 2 mps 740 mmHg 76%
    23:00 +26°C° 0 mm 2 mps 740 mmHg 79%

    19 August, Sunday

    Time Temperature Precipitation Wind Pressure Humidity
    00:00 +26°C° 0 mm 2 mps 740 mmHg 82%
    01:00 +25°C° 0 mm 2 mps 740 mmHg 83%
    02:00 +25°C° 0 mm 2 mps 740 mmHg 84%
    03:00 +25°C° 0 mm 2 mps 739 mmHg 85%
    04:00 +25°C° 0 mm 2 mps 740 mmHg 86%
    05:00 +25°C° 0 mm 2 mps 740 mmHg 86%
    06:00 +24°C° 0 mm 2 mps 740 mmHg 86%
    07:00 +25°C° 0 mm 2 mps 740 mmHg 84%
    08:00 +27°C° 0 mm 2 mps 740 mmHg 81%
    09:00 +28°C° 0 mm 2 mps 740 mmHg 78%
    10:00 +28°C° 0 mm 2 mps 740 mmHg 77%
    11:00 +29°C° 0 mm 2 mps 740 mmHg 75%
    12:00 +29°C° 0 mm 2 mps 740 mmHg 74%
    13:00 +31°C° 0 mm 3 mps 740 mmHg 68%
    14:00 +33°C° 0 mm 3 mps 739 mmHg 63%
    15:00 +35°C° 0 mm 4 mps 739 mmHg 57%
    16:00 +34°C° 1.5 mm 3 mps 739 mmHg 62%
    17:00 +34°C° 1.5 mm 3 mps 738 mmHg 66%
    18:00 +33°C° 1.5 mm 3 mps 738 mmHg 70%
    19:00 +30°C° 2.5 mm 3 mps 738 mmHg 74%
    20:00 +29°C° 2.5 mm 4 mps 738 mmHg 79%
    21:00 +27°C° 2.5 mm 4 mps 738 mmHg 83%
    22:00 +27°C° 4.6 mm 4 mps 738 mmHg 86%
    23:00 +26°C° 4.6 mm 4 mps 738 mmHg 89%

    20 August, Monday

    Time Temperature Precipitation Wind Pressure Humidity
    00:00 +26°C° 4.6 mm 4 mps 738 mmHg 92%
    01:00 +26°C° 1.2 mm 4 mps 738 mmHg 91%
    02:00 +26°C° 1.2 mm 5 mps 738 mmHg 89%
    03:00 +26°C° 1.2 mm 5 mps 738 mmHg 88%
    04:00 +26°C° 0 mm 4 mps 738 mmHg 89%
    05:00 +25°C° 0 mm 4 mps 738 mmHg 90%
    06:00 +25°C° 0 mm 3 mps 738 mmHg 92%
    07:00 +26°C° 0 mm 3 mps 739 mmHg 87%
    08:00 +27°C° 0 mm 4 mps 739 mmHg 83%
    09:00 +29°C° 0 mm 4 mps 739 mmHg 78%
    10:00 +30°C° 0 mm 4 mps 739 mmHg 73%
    11:00 +32°C° 0 mm 4 mps 739 mmHg 67%
    12:00 +33°C° 0 mm 4 mps 739 mmHg 62%
    13:00 +33°C° 0 mm 4 mps 739 mmHg 61%
    14:00 +33°C° 0 mm 5 mps 739 mmHg 60%
    15:00 +33°C° 0 mm 5 mps 739 mmHg 58%
    16:00 +33°C° 0 mm 4 mps 739 mmHg 63%
    17:00 +31°C° 0 mm 3 mps 740 mmHg 67%
    18:00 +30°C° 0 mm 3 mps 740 mmHg 71%
    19:00 +29°C° 0 mm 2 mps 740 mmHg 73%
    20:00 +27°C° 0 mm 2 mps 741 mmHg 76%
    21:00 +26°C° 0 mm 1 mps 741 mmHg 78%
    22:00 +26°C° 0 mm 1 mps 741 mmHg 78%
    23:00 +26°C° 0 mm 1 mps 741 mmHg 79%
    Show more